Location: Brookfield Village
(37.7352°N, 122.1861°W)
Time: 14:59:25
(UTC+00:00)

ISS - Visible Passes

Search period start: 07 October 2024 00:00
Search period end: 17 October 2024 00:00
Orbit: 412 x 425 km, 51.6° (Epoch: 07 October)

Date Brightness Start Highest point End Pass type
(mag) Time Alt. Az. Time Alt. Az. Time Alt. Az.
14 Oct -1.2 13:42:20 10° S 13:44:59 22° SE 13:47:38 10° ENE visible
15 Oct -0.7 12:56:20 10° SSE 12:57:51 13° SE 12:59:21 10° E visible
16 Oct -3.6 13:43:42 10° SW 13:47:01 78° SE 13:50:21 10° NE visible
